| time (UTC) | temp C | wind direction | speed KPH | gust KPH | rain 1hr cm | rain 24hr cm | rain mn cm | humidity % | barometer mb |
| 20260507170139 | 17 | 40 | 9.7 | 12.9 | 0.00 | 0.00 | 0.00 | 90 | 1014.0 |
| 20260507165639 | 17 | 30 | 4.8 | 8.0 | 0.00 | 0.00 | 0.00 | 90 | 1014.0 |
| 20260507165504 | 17 | 26 | 4.8 | 8.0 | 0.00 | 0.00 | 0.00 | 90 | 1014.0 |
| 20260507165139 | 17 | 11 | 4.8 | 8.0 | 0.00 | 0.00 | 0.00 | 91 | 1014.0 |
| 20260507164639 | 17 | 52 | 3.2 | 8.0 | 0.00 | 0.00 | 0.00 | 91 | 1013.9 |
| 20260507164504 | 17 | 35 | 3.2 | 8.0 | 0.00 | 0.00 | 0.00 | 91 | 1013.9 |
| 20260507164139 | 16 | 53 | 4.8 | 8.0 | 0.00 | 0.00 | 0.00 | 91 | 1013.9 |
| 20260507164010 | 16 | 48 | 4.8 | 8.0 | 0.00 | 0.00 | 0.00 | 91 | 1013.9 |
| 20260507163639 | 16 | 47 | 3.2 | 4.8 | 0.00 | 0.00 | 0.00 | 91 | 1013.9 |
| 20260507163139 | 16 | 40 | 3.2 | 4.8 | 0.00 | 0.00 | 0.00 | 91 | 1013.9 |
| 20260507162639 | 16 | 46 | 3.2 | 4.8 | 0.00 | 0.00 | 0.00 | 91 | 1013.8 |
| 20260507162139 | 16 | 80 | 3.2 | 4.8 | 0.00 | 0.00 | 0.00 | 91 | 1013.7 |
| 20260507161639 | 16 | 34 | 3.2 | 4.8 | 0.00 | 0.00 | 0.00 | 90 | 1013.7 |
| 20260507161139 | 16 | 60 | 3.2 | 3.2 | 0.00 | 0.00 | 0.00 | 90 | 1013.6 |
| 20260507161010 | 16 | 60 | 3.2 | 4.8 | 0.00 | 0.00 | 0.00 | 90 | 1013.6 |
| 20260507160639 | 16 | 67 | 4.8 | 4.8 | 0.00 | 0.00 | 0.00 | 90 | 1013.5 |
| 20260507160139 | 16 | 57 | 4.8 | 8.0 | 0.00 | 0.00 | 0.00 | 89 | 1013.5 |
| 20260507160004 | 16 | 60 | 3.2 | 8.0 | 0.00 | 0.00 | 0.00 | 89 | 1013.4 |
| 20260507155639 | 16 | 60 | 4.8 | 8.0 | 0.00 | 0.00 | 0.00 | 89 | 1013.4 |
| 20260507155139 | 16 | 50 | 4.8 | 8.0 | 0.00 | 0.00 | 0.00 | 89 | 1013.4 |
| 20260507154639 | 16 | 29 | 3.2 | 4.8 | 0.00 | 0.00 | 0.00 | 89 | 1013.4 |
| 20260507154139 | 17 | 60 | 3.2 | 3.2 | 0.00 | 0.00 | 0.00 | 89 | 1013.4 |
| 20260507153639 | 17 | 60 | 3.2 | 4.8 | 0.00 | 0.00 | 0.00 | 88 | 1013.3 |
| 20260507153139 | 17 | 74 | 3.2 | 4.8 | 0.00 | 0.00 | 0.00 | 88 | 1013.2 |
| 20260507153011 | 17 | 73 | 3.2 | 8.0 | 0.00 | 0.00 | 0.00 | 88 | 1013.1 |
| 20260507152639 | 17 | 79 | 3.2 | 8.0 | 0.00 | 0.00 | 0.00 | 87 | 1013.2 |
| 20260507152139 | 17 | 57 | 1.6 | 1.6 | 0.00 | 0.00 | 0.00 | 87 | 1013.2 |
| 20260507152010 | 17 | 59 | 1.6 | 4.8 | 0.00 | 0.00 | 0.00 | 87 | 1013.2 |
| 20260507151639 | 17 | 62 | 3.2 | 4.8 | 0.00 | 0.00 | 0.00 | 87 | 1013.1 |
| 20260507151504 | 17 | 62 | 1.6 | 4.8 | 0.00 | 0.00 | 0.00 | 87 | 1013.1 |
| 20260507151139 | 17 | 6 | 0.0 | 0.0 | 0.00 | 0.00 | 0.00 | 87 | 1013.1 |
| 20260507150639 | 17 | 6 | 1.6 | 3.2 | 0.00 | 0.00 | 0.00 | 87 | 1013.0 |
| 20260507150139 | 17 | 21 | 1.6 | 3.2 | 0.00 | 0.00 | 0.00 | 87 | 1013.0 |
| 20260507150005 | 17 | 21 | 1.6 | 3.2 | 0.00 | 0.00 | 0.00 | 87 | 1013.0 |
| 20260507145639 | 18 | 21 | 0.0 | 0.0 | 0.00 | 0.00 | 0.00 | 87 | 1012.9 |
| 20260507145139 | 18 | 21 | 0.0 | 1.6 | 0.00 | 0.00 | 0.00 | 86 | 1012.9 |
| 20260507144639 | 18 | 21 | 1.6 | 1.6 | 0.00 | 0.00 | 0.00 | 86 | 1013.0 |
| 20260507144504 | 18 | 21 | 1.6 | 4.8 | 0.00 | 0.00 | 0.00 | 87 | 1013.0 |
| 20260507144139 | 18 | 5 | 1.6 | 4.8 | 0.00 | 0.00 | 0.00 | 87 | 1013.0 |
| 20260507143639 | 18 | 5 | 1.6 | 3.2 | 0.00 | 0.00 | 0.00 | 86 | 1012.9 |
| 20260507143504 | 18 | 352 | 0.0 | 3.2 | 0.00 | 0.00 | 0.00 | 86 | 1013.0 |
| 20260507143139 | 18 | 341 | 1.6 | 3.2 | 0.00 | 0.00 | 0.00 | 86 | 1013.0 |
| 20260507142639 | 18 | 22 | 4.8 | 11.3 | 0.00 | 0.00 | 0.00 | 86 | 1012.8 |
| 20260507142505 | 18 | 25 | 4.8 | 11.3 | 0.00 | 0.00 | 0.00 | 86 | 1012.8 |
| 20260507142139 | 18 | 44 | 3.2 | 9.7 | 0.00 | 0.00 | 0.00 | 85 | 1012.8 |
| 20260507142010 | 18 | 53 | 3.2 | 9.7 | 0.00 | 0.00 | 0.00 | 85 | 1012.8 |
| 20260507141639 | 18 | 69 | 4.8 | 8.0 | 0.00 | 0.00 | 0.00 | 85 | 1012.8 |
| 20260507141504 | 18 | 64 | 4.8 | 11.3 | 0.00 | 0.00 | 0.00 | 85 | 1012.8 |
| 20260507141139 | 18 | 73 | 8.0 | 11.3 | 0.00 | 0.00 | 0.00 | 85 | 1012.8 |
| 20260507141010 | 18 | 77 | 8.0 | 12.9 | 0.00 | 0.00 | 0.00 | 85 | 1012.8 |
| 20260507140639 | 18 | 71 | 4.8 | 11.3 | 0.00 | 0.00 | 0.00 | 86 | 1012.8 |
| 20260507140139 | 18 | 37 | 3.2 | 8.0 | 0.00 | 0.00 | 0.00 | 86 | 1013.0 |
| 20260507140006 | 18 | 39 | 4.8 | 8.0 | 0.00 | 0.00 | 0.00 | 86 | 1013.0 |
| 20260507135639 | 18 | 51 | 4.8 | 8.0 | 0.00 | 0.00 | 0.00 | 86 | 1012.9 |
| 20260507135504 | 18 | 67 | 3.2 | 9.7 | 0.00 | 0.00 | 0.00 | 86 | 1012.9 |
| 20260507135139 | 18 | 62 | 4.8 | 9.7 | 0.00 | 0.00 | 0.00 | 85 | 1012.9 |
| 20260507134639 | 17 | 73 | 8.0 | 11.3 | 0.00 | 0.00 | 0.00 | 86 | 1012.9 |
| 20260507134504 | 17 | 77 | 3.2 | 11.3 | 0.00 | 0.00 | 0.00 | 86 | 1012.9 |
| 20260507134139 | 17 | 64 | 4.8 | 4.8 | 0.00 | 0.00 | 0.00 | 86 | 1012.9 |
| 20260507134011 | 17 | 66 | 4.8 | 8.0 | 0.00 | 0.00 | 0.00 | 86 | 1012.9 |
| 20260507133639 | 17 | 73 | 3.2 | 4.8 | 0.00 | 0.00 | 0.00 | 86 | 1012.9 |
| 20260507133138 | 17 | 74 | 4.8 | 8.0 | 0.00 | 0.00 | 0.00 | 85 | 1012.9 |
| 20260507132639 | 17 | 82 | 4.8 | 4.8 | 0.00 | 0.00 | 0.00 | 85 | 1012.9 |
| 20260507132138 | 17 | 54 | 1.6 | 4.8 | 0.00 | 0.00 | 0.00 | 86 | 1013.1 |
| 20260507132011 | 17 | 38 | 4.8 | 8.0 | 0.00 | 0.00 | 0.00 | 86 | 1013.0 |
| 20260507131639 | 17 | 31 | 4.8 | 4.8 | 0.00 | 0.00 | 0.00 | 86 | 1013.0 |
| 20260507131504 | 17 | 32 | 4.8 | 8.0 | 0.00 | 0.00 | 0.00 | 87 | 1013.1 |
| 20260507131138 | 17 | 24 | 4.8 | 4.8 | 0.00 | 0.00 | 0.00 | 87 | 1013.0 |
| 20260507130638 | 17 | 73 | 3.2 | 4.8 | 0.00 | 0.00 | 0.00 | 86 | 1013.0 |
| 20260507130138 | 17 | 19 | 3.2 | 11.3 | 0.00 | 0.00 | 0.00 | 86 | 1012.9 |
| 20260507130005 | 17 | 23 | 1.6 | 4.8 | 0.00 | 0.00 | 0.00 | 86 | 1012.9 |
| 20260507125638 | 17 | 60 | 4.8 | 4.8 | 0.00 | 0.00 | 0.00 | 86 | 1012.9 |
| 20260507125138 | 17 | 73 | 4.8 | 8.0 | 0.00 | 0.00 | 0.00 | 86 | 1012.9 |
| 20260507125011 | 17 | 70 | 4.8 | 8.0 | 0.00 | 0.00 | 0.00 | 86 | 1012.9 |
| 20260507124638 | 17 | 69 | 3.2 | 8.0 | 0.00 | 0.00 | 0.00 | 87 | 1013.1 |
| 20260507124138 | 17 | 72 | 4.8 | 8.0 | 0.00 | 0.00 | 0.00 | 88 | 1013.1 |
| 20260507124010 | 17 | 77 | 4.8 | 8.0 | 0.00 | 0.00 | 0.00 | 88 | 1013.1 |
| 20260507123638 | 17 | 84 | 1.6 | 4.8 | 0.00 | 0.00 | 0.00 | 88 | 1013.0 |
| 20260507123504 | 17 | 78 | 1.6 | 4.8 | 0.00 | 0.00 | 0.00 | 88 | 1013.0 |
| 20260507123138 | 17 | 55 | 1.6 | 3.2 | 0.00 | 0.00 | 0.00 | 88 | 1013.1 |
| 20260507122638 | 17 | 55 | 1.6 | 3.2 | 0.00 | 0.00 | 0.00 | 88 | 1013.0 |
| 20260507122138 | 18 | 54 | 3.2 | 4.8 | 0.00 | 0.00 | 0.00 | 88 | 1013.1 |
| 20260507121638 | 18 | 34 | 3.2 | 3.2 | 0.00 | 0.00 | 0.00 | 87 | 1013.2 |
| 20260507121504 | 18 | 34 | 1.6 | 4.8 | 0.00 | 0.00 | 0.00 | 87 | 1013.2 |
| 20260507121138 | 18 | 34 | 1.6 | 3.2 | 0.00 | 0.00 | 0.00 | 88 | 1013.2 |
| 20260507121011 | 18 | 34 | 1.6 | 3.2 | 0.00 | 0.00 | 0.00 | 88 | 1013.2 |
| 20260507120638 | 18 | 34 | 0.0 | 1.6 | 0.00 | 0.00 | 0.00 | 88 | 1013.2 |
| 20260507120138 | 18 | 15 | 1.6 | 4.8 | 0.00 | 0.00 | 0.00 | 88 | 1013.3 |
| 20260507120005 | 18 | 15 | 1.6 | 4.8 | 0.00 | 0.00 | 0.00 | 88 | 1013.3 |
| 20260507115638 | 18 | 5 | 3.2 | 4.8 | 0.00 | 0.00 | 0.00 | 88 | 1013.3 |
| 20260507115138 | 18 | 23 | 3.2 | 4.8 | 0.00 | 0.00 | 0.00 | 88 | 1013.2 |
| 20260507114638 | 18 | 21 | 8.0 | 9.7 | 0.00 | 0.00 | 0.00 | 88 | 1013.3 |
| 20260507114504 | 18 | 10 | 4.8 | 9.7 | 0.00 | 0.00 | 0.00 | 88 | 1013.3 |
| 20260507114138 | 18 | 76 | 3.2 | 4.8 | 0.00 | 0.00 | 0.00 | 88 | 1013.3 |
| 20260507114010 | 18 | 85 | 4.8 | 8.0 | 0.00 | 0.00 | 0.00 | 88 | 1013.3 |
| 20260507113638 | 18 | 354 | 3.2 | 4.8 | 0.00 | 0.00 | 0.00 | 88 | 1013.5 |
| 20260507113503 | 18 | 10 | 4.8 | 8.0 | 0.00 | 0.00 | 0.00 | 88 | 1013.5 |
| 20260507113138 | 18 | 1 | 4.8 | 8.0 | 0.00 | 0.00 | 0.00 | 88 | 1013.4 |
| 20260507112638 | 18 | 37 | 3.2 | 4.8 | 0.00 | 0.00 | 0.00 | 89 | 1013.5 |
| 20260507112138 | 18 | 52 | 4.8 | 11.3 | 0.00 | 0.00 | 0.00 | 89 | 1013.4 |
| 20260507111638 | 18 | 34 | 8.0 | 11.3 | 0.00 | 0.00 | 0.00 | 89 | 1013.5 |
| 20260507111138 | 18 | 58 | 8.0 | 11.3 | 0.00 | 0.00 | 0.00 | 90 | 1013.5 |
| 20260507111010 | 18 | 37 | 11.3 | 16.1 | 0.00 | 0.00 | 0.00 | 90 | 1013.5 |
| 20260507110638 | 18 | 43 | 9.7 | 11.3 | 0.00 | 0.00 | 0.00 | 90 | 1013.6 |
| 20260507110505 | 18 | 37 | 8.0 | 14.5 | 0.00 | 0.00 | 0.00 | 90 | 1013.6 |
| 20260507110138 | 18 | 16 | 8.0 | 12.9 | 0.00 | 0.00 | 0.00 | 90 | 1013.6 |
| 20260507105638 | 19 | 16 | 4.8 | 8.0 | 0.00 | 0.00 | 0.00 | 91 | 1013.8 |
| 20260507105138 | 19 | 346 | 4.8 | 8.0 | 0.00 | 0.00 | 0.00 | 91 | 1013.9 |
| 20260507105011 | 19 | 353 | 4.8 | 8.0 | 0.00 | 0.00 | 0.00 | 91 | 1013.8 |
| 20260507104638 | 19 | 10 | 4.8 | 8.0 | 0.00 | 0.00 | 0.00 | 91 | 1013.8 |
| 20260507104138 | 19 | 2 | 4.8 | 8.0 | 0.00 | 0.00 | 0.00 | 91 | 1013.8 |
| 20260507104012 | 19 | 7 | 8.0 | 12.9 | 0.00 | 0.00 | 0.00 | 91 | 1013.8 |
| 20260507103638 | 19 | 45 | 4.8 | 4.8 | 0.00 | 0.00 | 0.00 | 91 | 1013.8 |
| 20260507103504 | 19 | 39 | 6.4 | 16.1 | 0.00 | 0.00 | 0.00 | 91 | 1013.8 |
| 20260507103138 | 19 | 21 | 8.0 | 16.1 | 0.00 | 0.00 | 0.00 | 91 | 1013.9 |
| 20260507103011 | 19 | 14 | 8.0 | 16.1 | 0.00 | 0.00 | 0.00 | 91 | 1013.9 |
| 20260507102638 | 19 | 37 | 4.8 | 9.7 | 0.00 | 0.00 | 0.00 | 91 | 1013.9 |
| 20260507102504 | 19 | 52 | 4.8 | 12.9 | 0.00 | 0.00 | 0.00 | 91 | 1013.9 |
| 20260507102138 | 19 | 20 | 4.8 | 4.8 | 0.00 | 0.00 | 0.00 | 91 | 1013.9 |
| 20260507102010 | 19 | 30 | 6.4 | 11.3 | 0.00 | 0.00 | 0.00 | 91 | 1013.9 |
| 20260507101638 | 19 | 3 | 8.0 | 8.0 | 0.00 | 0.00 | 0.00 | 91 | 1013.9 |
| 20260507101138 | 20 | 23 | 9.7 | 9.7 | 0.00 | 0.00 | 0.00 | 91 | 1013.9 |
| 20260507100638 | 20 | 22 | 8.0 | 11.3 | 0.00 | 0.00 | 0.00 | 91 | 1014.0 |
| 20260507100505 | 20 | 16 | 8.0 | 12.9 | 0.00 | 0.00 | 0.00 | 91 | 1014.0 |
| 20260507100138 | 20 | 22 | 4.8 | 12.9 | 0.00 | 0.00 | 0.00 | 91 | 1014.1 |
| 20260507095638 | 20 | 20 | 3.2 | 4.8 | 0.00 | 0.00 | 0.00 | 92 | 1014.0 |
| 20260507095138 | 20 | 352 | 4.8 | 9.7 | 0.00 | 0.00 | 0.00 | 92 | 1014.1 |
| 20260507094638 | 20 | 8 | 4.8 | 4.8 | 0.00 | 0.00 | 0.00 | 92 | 1014.1 |
| 20260507094138 | 20 | 343 | 8.0 | 9.7 | 0.00 | 0.00 | 0.00 | 91 | 1014.2 |
| 20260507094010 | 20 | 352 | 4.8 | 12.9 | 0.00 | 0.00 | 0.00 | 91 | 1014.2 |
| 20260507093638 | 20 | 4 | 4.8 | 8.0 | 0.00 | 0.00 | 0.00 | 91 | 1014.2 |
| 20260507093138 | 20 | 27 | 1.6 | 4.8 | 0.00 | 0.00 | 0.00 | 91 | 1014.3 |
| 20260507093010 | 20 | 33 | 4.8 | 11.3 | 0.00 | 0.00 | 0.00 | 91 | 1014.4 |
| 20260507092638 | 20 | 19 | 4.8 | 8.0 | 0.00 | 0.00 | 0.00 | 91 | 1014.4 |
| 20260507092504 | 20 | 32 | 4.8 | 9.7 | 0.00 | 0.00 | 0.00 | 91 | 1014.4 |
| 20260507092138 | 20 | 4 | 4.8 | 8.0 | 0.00 | 0.00 | 0.00 | 91 | 1014.4 |
| 20260507091638 | 20 | 0 | 9.7 | 14.5 | 0.00 | 0.00 | 0.00 | 91 | 1014.4 |
| 20260507091504 | 20 | 24 | 11.3 | 14.5 | 0.00 | 0.00 | 0.00 | 92 | 1014.4 |
| 20260507091138 | 20 | 2 | 9.7 | 11.3 | 0.00 | 0.00 | 0.00 | 92 | 1014.4 |
| 20260507091010 | 20 | 2 | 9.7 | 16.1 | 0.00 | 0.00 | 0.00 | 92 | 1014.4 |
| 20260507090638 | 20 | 1 | 4.8 | 11.3 | 0.00 | 0.00 | 0.00 | 92 | 1014.4 |
| 20260507090504 | 20 | 20 | 6.4 | 14.5 | 0.00 | 0.00 | 0.00 | 92 | 1014.5 |
| 20260507090138 | 20 | 351 | 4.8 | 12.9 | 0.00 | 0.00 | 0.00 | 92 | 1014.5 |
| 20260507090004 | 20 | 337 | 4.8 | 12.9 | 0.00 | 0.00 | 0.00 | 92 | 1014.4 |
| 20260507085638 | 20 | 14 | 8.0 | 12.9 | 0.00 | 0.00 | 0.00 | 92 | 1014.3 |
| 20260507085138 | 20 | 22 | 9.7 | 14.5 | 0.00 | 0.00 | 0.00 | 92 | 1014.4 |
| 20260507085010 | 20 | 17 | 8.0 | 16.1 | 0.00 | 0.00 | 0.00 | 92 | 1014.4 |
| 20260507084638 | 20 | 17 | 4.8 | 8.0 | 0.00 | 0.00 | 0.00 | 92 | 1014.5 |
| 20260507084138 | 20 | 13 | 9.7 | 12.9 | 0.00 | 0.00 | 0.00 | 92 | 1014.5 |
| 20260507084010 | 20 | 8 | 8.0 | 12.9 | 0.00 | 0.00 | 0.00 | 92 | 1014.5 |
| 20260507083640 | 20 | 5 | 4.8 | 11.3 | 0.00 | 0.00 | 0.00 | 92 | 1014.5 |
| 20260507083140 | 20 | 21 | 4.8 | 9.7 | 0.00 | 0.00 | 0.00 | 92 | 1014.5 |
| 20260507082640 | 20 | 19 | 9.7 | 14.5 | 0.00 | 0.00 | 0.00 | 92 | 1014.5 |
| 20260507082504 | 20 | 24 | 8.0 | 14.5 | 0.00 | 0.00 | 0.00 | 92 | 1014.6 |
| 20260507082140 | 20 | 16 | 9.7 | 12.9 | 0.00 | 0.00 | 0.00 | 92 | 1014.5 |
| 20260507082011 | 20 | 16 | 8.0 | 12.9 | 0.00 | 0.00 | 0.00 | 92 | 1014.5 |
| 20260507081640 | 20 | 10 | 9.7 | 11.3 | 0.00 | 0.00 | 0.00 | 92 | 1014.6 |
| 20260507081140 | 20 | 351 | 8.0 | 4.8 | 0.00 | 0.00 | 0.00 | 92 | 1014.5 |
| 20260507081011 | 20 | 358 | 8.0 | 19.3 | 0.00 | 0.00 | 0.00 | 92 | 1014.5 |
| 20260507080640 | 20 | 8 | 4.8 | 8.0 | 0.00 | 0.00 | 0.00 | 92 | 1014.4 |
| 20260507080140 | 20 | 14 | 8.0 | 11.3 | 0.00 | 0.00 | 0.00 | 92 | 1014.4 |
| 20260507075640 | 20 | 41 | 9.7 | 11.3 | 0.00 | 0.00 | 0.00 | 92 | 1014.4 |
| 20260507075504 | 20 | 27 | 9.7 | 19.3 | 0.00 | 0.00 | 0.00 | 92 | 1014.4 |
| 20260507075138 | 20 | 16 | 12.9 | 19.3 | 0.00 | 0.00 | 0.00 | 92 | 1014.5 |
| 20260507075009 | 20 | 6 | 9.7 | 19.3 | 0.00 | 0.00 | 0.00 | 92 | 1014.5 |
| 20260507074637 | 20 | 357 | 8.0 | 8.0 | 0.00 | 0.00 | 0.00 | 92 | 1014.5 |
| 20260507074503 | 20 | 350 | 6.4 | 11.3 | 0.00 | 0.00 | 0.00 | 91 | 1014.4 |
| 20260507074137 | 20 | 23 | 8.0 | 9.7 | 0.00 | 0.00 | 0.00 | 92 | 1014.4 |
| 20260507073637 | 20 | 6 | 8.0 | 12.9 | 0.00 | 0.00 | 0.00 | 92 | 1014.4 |
| 20260507073137 | 20 | 355 | 4.8 | 9.7 | 0.00 | 0.00 | 0.00 | 91 | 1014.3 |
| 20260507072637 | 20 | 356 | 4.8 | 11.3 | 0.00 | 0.00 | 0.00 | 92 | 1014.3 |
| 20260507072503 | 20 | 344 | 6.4 | 14.5 | 0.00 | 0.00 | 0.00 | 92 | 1014.3 |
| 20260507072137 | 20 | 356 | 8.0 | 11.3 | 0.00 | 0.00 | 0.00 | 92 | 1014.3 |
| 20260507071637 | 20 | 345 | 8.0 | 8.0 | 0.00 | 0.00 | 0.00 | 92 | 1014.2 |
| 20260507071137 | 20 | 355 | 8.0 | 12.9 | 0.00 | 0.00 | 0.00 | 92 | 1014.2 |
| 20260507071009 | 20 | 349 | 4.8 | 14.5 | 0.00 | 0.00 | 0.00 | 91 | 1014.2 |
| 20260507070637 | 20 | 351 | 8.0 | 14.5 | 0.00 | 0.00 | 0.00 | 91 | 1014.0 |
| 20260507070503 | 20 | 1 | 6.4 | 14.5 | 0.00 | 0.00 | 0.00 | 91 | 1014.1 |
| 20260507070137 | 20 | 352 | 4.8 | 8.0 | 0.00 | 0.00 | 0.00 | 91 | 1014.0 |
| 20260507065637 | 20 | 358 | 8.0 | 11.3 | 0.00 | 0.00 | 0.00 | 91 | 1014.0 |
| 20260507065137 | 20 | 16 | 8.0 | 12.9 | 0.00 | 0.00 | 0.00 | 91 | 1013.9 |
| 20260507064637 | 20 | 0 | 9.7 | 12.9 | 0.00 | 0.00 | 0.00 | 91 | 1013.8 |
| 20260507064137 | 21 | 13 | 4.8 | 8.0 | 0.00 | 0.00 | 0.00 | 92 | 1013.7 |
| 20260507064010 | 21 | 9 | 3.2 | 8.0 | 0.00 | 0.00 | 0.00 | 92 | 1013.7 |
| 20260507063637 | 21 | 9 | 4.8 | 8.0 | 0.00 | 0.00 | 0.00 | 91 | 1013.7 |
| 20260507063502 | 21 | 344 | 4.8 | 9.7 | 0.00 | 0.00 | 0.00 | 91 | 1013.6 |
| 20260507063137 | 21 | 317 | 3.2 | 8.0 | 0.00 | 0.00 | 0.00 | 91 | 1013.6 |
| 20260507062637 | 21 | 9 | 8.0 | 8.0 | 0.00 | 0.00 | 0.00 | 91 | 1013.4 |
| 20260507062137 | 21 | 11 | 4.8 | 8.0 | 0.00 | 0.00 | 0.00 | 90 | 1013.5 |
| 20260507061637 | 21 | 10 | 8.0 | 11.3 | 0.00 | 0.00 | 0.00 | 90 | 1013.4 |
| 20260507061503 | 21 | 13 | 8.0 | 12.9 | 0.00 | 0.00 | 0.00 | 91 | 1013.4 |
| 20260507061137 | 21 | 14 | 3.2 | 11.3 | 0.00 | 0.00 | 0.00 | 91 | 1013.4 |
| 20260507060637 | 21 | 21 | 8.0 | 4.8 | 0.00 | 0.00 | 0.00 | 91 | 1013.4 |
| 20260507060137 | 21 | 30 | 4.8 | 8.0 | 0.00 | 0.00 | 0.00 | 91 | 1013.3 |
| 20260507060004 | 21 | 11 | 4.8 | 11.3 | 0.00 | 0.00 | 0.00 | 91 | 1013.3 |
| 20260507055637 | 21 | 349 | 8.0 | 8.0 | 0.00 | 0.00 | 0.00 | 91 | 1013.3 |
| 20260507055137 | 21 | 19 | 3.2 | 8.0 | 0.00 | 0.00 | 0.00 | 91 | 1013.3 |
| 20260507054637 | 21 | 349 | 8.0 | 9.7 | 0.00 | 0.00 | 0.00 | 91 | 1013.2 |
| 20260507054503 | 21 | 348 | 4.8 | 9.7 | 0.00 | 0.00 | 0.00 | 91 | 1013.2 |
| 20260507054137 | 21 | 14 | 8.0 | 9.7 | 0.00 | 0.00 | 0.00 | 91 | 1013.0 |
| 20260507053637 | 21 | 22 | 9.7 | 11.3 | 0.00 | 0.00 | 0.00 | 91 | 1013.0 |
| 20260507053137 | 21 | 14 | 8.0 | 11.3 | 0.00 | 0.00 | 0.00 | 91 | 1012.9 |
| 20260507052637 | 21 | 322 | 3.2 | 4.8 | 0.00 | 0.00 | 0.00 | 90 | 1012.8 |
| 20260507052137 | 21 | 349 | 3.2 | 4.8 | 0.00 | 0.00 | 0.00 | 90 | 1012.8 |
| 20260507052009 | 21 | 344 | 6.4 | 9.7 | 0.00 | 0.00 | 0.00 | 90 | 1012.7 |
| 20260507051637 | 21 | 4 | 3.2 | 4.8 | 0.00 | 0.00 | 0.00 | 90 | 1012.6 |
| 20260507051503 | 21 | 0 | 4.8 | 11.3 | 0.00 | 0.00 | 0.00 | 90 | 1012.5 |
| 20260507051137 | 21 | 7 | 4.8 | 4.8 | 0.00 | 0.00 | 0.00 | 90 | 1012.5 |
| 20260507051010 | 21 | 16 | 6.4 | 14.5 | 0.00 | 0.00 | 0.00 | 90 | 1012.5 |
| 20260507050637 | 21 | 33 | 9.7 | 14.5 | 0.00 | 0.00 | 0.00 | 90 | 1012.5 |
| 20260507050504 | 21 | 36 | 8.0 | 14.5 | 0.00 | 0.00 | 0.00 | 89 | 1012.5 |
| 20260507050137 | 21 | 7 | 9.7 | 14.5 | 0.00 | 0.00 | 0.00 | 89 | 1012.4 |
| 20260507045637 | 21 | 22 | 4.8 | 11.3 | 0.00 | 0.00 | 0.00 | 88 | 1012.3 |
| 20260507045503 | 21 | 27 | 6.4 | 11.3 | 0.00 | 0.00 | 0.00 | 88 | 1012.3 |
| 20260507045137 | 21 | 20 | 8.0 | 11.3 | 0.00 | 0.00 | 0.00 | 88 | 1012.3 |
| 20260507045009 | 21 | 13 | 6.4 | 12.9 | 0.00 | 0.00 | 0.00 | 88 | 1012.3 |
| 20260507044637 | 21 | 10 | 8.0 | 12.9 | 0.00 | 0.00 | 0.00 | 88 | 1012.3 |
| 20260507044137 | 21 | 6 | 3.2 | 4.8 | 0.00 | 0.00 | 0.00 | 87 | 1012.2 |
| 20260507043637 | 21 | 357 | 3.2 | 8.0 | 0.00 | 0.00 | 0.00 | 87 | 1012.2 |
| 20260507043137 | 22 | 9 | 8.0 | 16.1 | 0.00 | 0.00 | 0.00 | 87 | 1012.2 |
| 20260507042637 | 22 | 351 | 8.0 | 11.3 | 0.00 | 0.00 | 0.00 | 86 | 1012.1 |
| 20260507042503 | 22 | 350 | 6.4 | 11.3 | 0.00 | 0.00 | 0.00 | 86 | 1012.1 |
| 20260507042137 | 22 | 356 | 8.0 | 11.3 | 0.00 | 0.00 | 0.00 | 85 | 1012.1 |
| 20260507041637 | 22 | 14 | 3.2 | 4.8 | 0.00 | 0.00 | 0.00 | 85 | 1012.0 |
| 20260507041503 | 22 | 10 | 4.8 | 12.9 | 0.00 | 0.00 | 0.00 | 85 | 1012.0 |
| 20260507041137 | 22 | 355 | 9.7 | 11.3 | 0.00 | 0.00 | 0.00 | 84 | 1011.9 |
| 20260507040637 | 22 | 8 | 8.0 | 12.9 | 0.00 | 0.00 | 0.00 | 84 | 1011.8 |
| 20260507040137 | 22 | 345 | 3.2 | 12.9 | 0.00 | 0.00 | 0.00 | 84 | 1011.8 |
| 20260507035637 | 23 | 344 | 9.7 | 11.3 | 0.00 | 0.00 | 0.00 | 83 | 1011.7 |
| 20260507035137 | 23 | 354 | 9.7 | 12.9 | 0.00 | 0.00 | 0.00 | 82 | 1011.6 |
| 20260507035010 | 23 | 353 | 6.4 | 12.9 | 0.00 | 0.00 | 0.00 | 81 | 1011.6 |
| 20260507034637 | 23 | 4 | 8.0 | 11.3 | 0.00 | 0.00 | 0.00 | 80 | 1011.6 |
| 20260507034137 | 23 | 1 | 9.7 | 12.9 | 0.00 | 0.00 | 0.00 | 80 | 1011.6 |
| 20260507033637 | 23 | 341 | 8.0 | 12.9 | 0.00 | 0.00 | 0.00 | 81 | 1011.6 |
| 20260507033503 | 23 | 356 | 8.0 | 9.7 | 0.00 | 0.00 | 0.00 | 81 | 1011.6 |
| 20260507033137 | 23 | 8 | 4.8 | 4.8 | 0.00 | 0.00 | 0.00 | 80 | 1011.5 |
| 20260507032637 | 23 | 341 | 8.0 | 9.7 | 0.00 | 0.00 | 0.00 | 80 | 1011.5 |
| 20260507032503 | 24 | 349 | 9.7 | 12.9 | 0.00 | 0.00 | 0.00 | 80 | 1011.5 |
| 20260507032137 | 24 | 10 | 4.8 | 11.3 | 0.00 | 0.00 | 0.00 | 79 | 1011.5 |
| 20260507032009 | 24 | 346 | 8.0 | 12.9 | 0.00 | 0.00 | 0.00 | 79 | 1011.5 |
| 20260507031637 | 24 | 316 | 11.3 | 12.9 | 0.00 | 0.00 | 0.00 | 79 | 1011.4 |
| 20260507031502 | 24 | 313 | 9.7 | 16.1 | 0.00 | 0.00 | 0.00 | 78 | 1011.4 |
| 20260507031136 | 24 | 10 | 8.0 | 14.5 | 0.00 | 0.00 | 0.00 | 79 | 1011.4 |
| 20260507031009 | 24 | 2 | 8.0 | 14.5 | 0.00 | 0.00 | 0.00 | 79 | 1011.4 |
| 20260507030638 | 24 | 357 | 4.8 | 8.0 | 0.00 | 0.00 | 0.00 | 79 | 1011.4 |
| 20260507030138 | 24 | 0 | 8.0 | 12.9 | 0.00 | 0.00 | 0.00 | 77 | 1011.3 |
| 20260507025638 | 25 | 349 | 9.7 | 14.5 | 0.00 | 0.00 | 0.00 | 77 | 1011.3 |
| 20260507025503 | 25 | 0 | 8.0 | 14.5 | 0.00 | 0.00 | 0.00 | 77 | 1011.3 |
| 20260507025138 | 25 | 353 | 9.7 | 14.5 | 0.00 | 0.00 | 0.00 | 76 | 1011.3 |
| 20260507024638 | 25 | 314 | 9.7 | 14.5 | 0.00 | 0.00 | 0.00 | 77 | 1011.3 |
| 20260507024503 | 25 | 307 | 8.0 | 14.5 | 0.00 | 0.00 | 0.00 | 76 | 1011.2 |
| 20260507024138 | 25 | 15 | 8.0 | 12.9 | 0.00 | 0.00 | 0.00 | 77 | 1011.2 |
| 20260507024010 | 25 | 356 | 8.0 | 12.9 | 0.00 | 0.00 | 0.00 | 76 | 1011.2 |
| 20260507023638 | 25 | 4 | 9.7 | 11.3 | 0.00 | 0.00 | 0.00 | 76 | 1011.2 |
| 20260507023138 | 25 | 352 | 4.8 | 11.3 | 0.00 | 0.00 | 0.00 | 74 | 1011.3 |
| 20260507023009 | 25 | 349 | 8.0 | 12.9 | 0.00 | 0.00 | 0.00 | 74 | 1011.3 |
| 20260507022638 | 26 | 342 | 9.7 | 11.3 | 0.00 | 0.00 | 0.00 | 73 | 1011.3 |
| 20260507022138 | 26 | 317 | 9.7 | 12.9 | 0.00 | 0.00 | 0.00 | 73 | 1011.2 |
| 20260507021638 | 26 | 303 | 8.0 | 11.3 | 0.00 | 0.00 | 0.00 | 72 | 1011.2 |
| 20260507021503 | 26 | 314 | 9.7 | 12.9 | 0.00 | 0.00 | 0.00 | 72 | 1011.3 |
| 20260507021138 | 26 | 305 | 4.8 | 9.7 | 0.00 | 0.00 | 0.00 | 74 | 1011.3 |
| 20260507020638 | 26 | 305 | 9.7 | 14.5 | 0.00 | 0.00 | 0.00 | 74 | 1011.4 |
| 20260507020138 | 26 | 357 | 4.8 | 8.0 | 0.00 | 0.00 | 0.00 | 72 | 1011.3 |
| 20260507020002 | 26 | 354 | 8.0 | 14.5 | 0.00 | 0.00 | 0.00 | 71 | 1011.4 |
| 20260507015638 | 26 | 337 | 9.7 | 12.9 | 0.00 | 0.00 | 0.00 | 73 | 1011.5 |
| 20260507015138 | 26 | 289 | 8.0 | 11.3 | 0.00 | 0.00 | 0.00 | 73 | 1011.4 |
| 20260507015010 | 26 | 302 | 9.7 | 16.1 | 0.00 | 0.00 | 0.00 | 73 | 1011.4 |
| 20260507014638 | 26 | 312 | 9.7 | 16.1 | 0.00 | 0.00 | 0.00 | 74 | 1011.4 |
| 20260507014503 | 26 | 313 | 8.0 | 16.1 | 0.00 | 0.00 | 0.00 | 74 | 1011.4 |
| 20260507014138 | 26 | 312 | 9.7 | 14.5 | 0.00 | 0.00 | 0.00 | 75 | 1011.4 |
| 20260507014009 | 26 | 316 | 9.7 | 14.5 | 0.00 | 0.00 | 0.00 | 75 | 1011.4 |
| 20260507013638 | 25 | 307 | 4.8 | 11.3 | 0.00 | 0.00 | 0.00 | 74 | 1011.4 |
| 20260507013503 | 26 | 322 | 8.0 | 16.1 | 0.00 | 0.00 | 0.00 | 74 | 1011.4 |
| 20260507013138 | 26 | 350 | 9.7 | 11.3 | 0.00 | 0.00 | 0.00 | 72 | 1011.4 |
| 20260507013009 | 26 | 338 | 9.7 | 19.3 | 0.00 | 0.00 | 0.00 | 72 | 1011.4 |
| 20260507012638 | 26 | 322 | 4.8 | 4.8 | 0.00 | 0.00 | 0.00 | 76 | 1011.3 |
| 20260507012503 | 26 | 324 | 4.8 | 19.3 | 0.00 | 0.00 | 0.00 | 75 | 1011.3 |
| 20260507012138 | 26 | 326 | 9.7 | 19.3 | 0.00 | 0.00 | 0.00 | 74 | 1011.4 |
| 20260507011638 | 26 | 327 | 9.7 | 11.3 | 0.00 | 0.00 | 0.00 | 72 | 1011.4 |
| 20260507011138 | 26 | 316 | 9.7 | 14.5 | 0.00 | 0.00 | 0.00 | 73 | 1011.5 |
| 20260507010638 | 26 | 295 | 9.7 | 12.9 | 0.00 | 0.00 | 0.00 | 73 | 1011.5 |
| 20260507010503 | 26 | 300 | 8.0 | 16.1 | 0.00 | 0.00 | 0.00 | 73 | 1011.5 |
| 20260507010138 | 26 | 343 | 8.0 | 11.3 | 0.00 | 0.00 | 0.00 | 73 | 1011.5 |
| 20260507005638 | 26 | 344 | 11.3 | 16.1 | 0.00 | 0.00 | 0.00 | 72 | 1011.6 |
| 20260507005503 | 26 | 346 | 9.7 | 14.5 | 0.00 | 0.00 | 0.00 | 72 | 1011.6 |
| 20260507005138 | 26 | 354 | 9.7 | 14.5 | 0.00 | 0.00 | 0.00 | 72 | 1011.6 |
| 20260507005009 | 26 | 334 | 9.7 | 16.1 | 0.00 | 0.00 | 0.00 | 73 | 1011.6 |
| 20260507004638 | 26 | 318 | 8.0 | 8.0 | 0.00 | 0.00 | 0.00 | 73 | 1011.6 |
| 20260507004138 | 26 | 307 | 9.7 | 12.9 | 0.00 | 0.00 | 0.00 | 74 | 1011.6 |
| 20260507004009 | 26 | 293 | 6.4 | 14.5 | 0.00 | 0.00 | 0.00 | 74 | 1011.6 |
| 20260507003638 | 26 | 307 | 9.7 | 11.3 | 0.00 | 0.00 | 0.00 | 73 | 1011.6 |
| 20260507003503 | 26 | 322 | 8.0 | 19.3 | 0.00 | 0.00 | 0.00 | 73 | 1011.6 |
| 20260507003138 | 26 | 311 | 8.0 | 12.9 | 0.00 | 0.00 | 0.00 | 74 | 1011.7 |
| 20260507002638 | 26 | 306 | 9.7 | 12.9 | 0.00 | 0.00 | 0.00 | 72 | 1011.7 |
| 20260507002503 | 26 | 331 | 9.7 | 19.3 | 0.00 | 0.00 | 0.00 | 73 | 1011.7 |
| 20260507002138 | 26 | 316 | 9.7 | 19.3 | 0.00 | 0.00 | 0.00 | 74 | 1011.8 |
| 20260507002009 | 26 | 329 | 9.7 | 14.5 | 0.00 | 0.00 | 0.00 | 73 | 1011.8 |
| 20260507001638 | 27 | 304 | 9.7 | 11.3 | 0.00 | 0.00 | 0.00 | 72 | 1011.8 |
| 20260507001138 | 27 | 294 | 9.7 | 12.9 | 0.00 | 0.00 | 0.00 | 72 | 1011.8 |
| 20260507000638 | 27 | 340 | 9.7 | 12.9 | 0.00 | 0.00 | 0.00 | 72 | 1011.8 |
| 20260507000138 | 27 | 314 | 9.7 | 19.3 | 0.00 | 0.00 | 0.00 | 72 | 1011.8 |
| 20260507000003 | 27 | 309 | 9.7 | 19.3 | 0.00 | 0.00 | 0.00 | 71 | 1011.9 |
| 20260506235638 | 27 | 341 | 9.7 | 16.1 | 0.00 | 0.00 | 0.00 | 70 | 1011.9 |
| 20260506235503 | 27 | 329 | 9.7 | 16.1 | 0.00 | 0.00 | 0.00 | 71 | 1011.9 |
| 20260506235138 | 28 | 316 | 11.3 | 16.1 | 0.00 | 0.00 | 0.00 | 70 | 1011.9 |
| 20260506234638 | 28 | 357 | 11.3 | 14.5 | 0.00 | 0.00 | 0.00 | 71 | 1011.9 |
| 20260506234138 | 28 | 310 | 11.3 | 12.9 | 0.00 | 0.00 | 0.00 | 71 | 1011.8 |
| 20260506233638 | 28 | 340 | 9.7 | 14.5 | 0.00 | 0.00 | 0.00 | 70 | 1011.8 |
| 20260506233138 | 28 | 316 | 8.0 | 9.7 | 0.00 | 0.00 | 0.00 | 70 | 1011.9 |
| 20260506232638 | 28 | 331 | 11.3 | 12.9 | 0.00 | 0.00 | 0.00 | 68 | 1011.9 |
| 20260506232138 | 28 | 332 | 4.8 | 14.5 | 0.00 | 0.00 | 0.00 | 70 | 1012.0 |
| 20260506232010 | 28 | 283 | 8.0 | 20.9 | 0.00 | 0.00 | 0.00 | 69 | 1012.0 |
| 20260506231638 | 27 | 320 | 9.7 | 14.5 | 0.00 | 0.00 | 0.00 | 71 | 1012.1 |
| 20260506231503 | 27 | 344 | 8.0 | 16.1 | 0.00 | 0.00 | 0.00 | 71 | 1012.0 |
| 20260506231138 | 27 | 291 | 9.7 | 14.5 | 0.00 | 0.00 | 0.00 | 71 | 1012.1 |
| 20260506230638 | 27 | 340 | 9.7 | 9.7 | 0.00 | 0.00 | 0.00 | 71 | 1012.2 |
| 20260506230138 | 27 | 0 | 11.3 | 14.5 | 0.00 | 0.00 | 0.00 | 72 | 1012.2 |
| 20260506225638 | 27 | 322 | 11.3 | 14.5 | 0.00 | 0.00 | 0.00 | 71 | 1012.3 |
| 20260506225138 | 27 | 320 | 9.7 | 12.9 | 0.00 | 0.00 | 0.00 | 72 | 1012.4 |
| 20260506225009 | 27 | 326 | 9.7 | 16.1 | 0.00 | 0.00 | 0.00 | 73 | 1012.4 |
| 20260506224639 | 27 | 356 | 9.7 | 12.9 | 0.00 | 0.00 | 0.00 | 71 | 1012.4 |
| 20260506224504 | 27 | 3 | 9.7 | 16.1 | 0.00 | 0.00 | 0.00 | 71 | 1012.4 |
| 20260506224139 | 27 | 326 | 4.8 | 11.3 | 0.00 | 0.00 | 0.00 | 74 | 1012.4 |
| 20260506223638 | 27 | 314 | 8.0 | 11.3 | 0.00 | 0.00 | 0.00 | 74 | 1012.5 |
| 20260506223504 | 27 | 297 | 8.0 | 14.5 | 0.00 | 0.00 | 0.00 | 73 | 1012.5 |
| 20260506223138 | 27 | 300 | 9.7 | 14.5 | 0.00 | 0.00 | 0.00 | 73 | 1012.5 |
| 20260506222637 | 27 | 348 | 9.7 | 16.1 | 0.00 | 0.00 | 0.00 | 73 | 1012.5 |
| 20260506222137 | 26 | 335 | 8.0 | 11.3 | 0.00 | 0.00 | 0.00 | 73 | 1012.5 |
| 20260506221637 | 26 | 316 | 11.3 | 16.1 | 0.00 | 0.00 | 0.00 | 73 | 1012.6 |
| 20260506221504 | 26 | 306 | 9.7 | 16.1 | 0.00 | 0.00 | 0.00 | 72 | 1012.6 |
| 20260506221137 | 27 | 345 | 12.9 | 14.5 | 0.00 | 0.00 | 0.00 | 71 | 1012.6 |
| 20260506221010 | 27 | 355 | 11.3 | 19.3 | 0.00 | 0.00 | 0.00 | 71 | 1012.6 |
| 20260506220637 | 26 | 314 | 8.0 | 11.3 | 0.00 | 0.00 | 0.00 | 74 | 1012.7 |
| 20260506220504 | 26 | 327 | 4.8 | 11.3 | 0.00 | 0.00 | 0.00 | 72 | 1012.7 |
| 20260506220137 | 26 | 291 | 4.8 | 9.7 | 0.00 | 0.00 | 0.00 | 74 | 1012.7 |
| 20260506215637 | 26 | 335 | 11.3 | 14.5 | 0.00 | 0.00 | 0.00 | 73 | 1012.8 |
| 20260506215503 | 26 | 304 | 11.3 | 16.1 | 0.00 | 0.00 | 0.00 | 73 | 1012.8 |
| 20260506215137 | 26 | 330 | 8.0 | 16.1 | 0.00 | 0.00 | 0.00 | 75 | 1012.9 |
| 20260506215010 | 26 | 351 | 9.7 | 16.1 | 0.00 | 0.00 | 0.00 | 74 | 1012.8 |
| 20260506214637 | 26 | 306 | 4.8 | 16.1 | 0.00 | 0.00 | 0.00 | 74 | 1012.9 |
| 20260506214503 | 26 | 270 | 8.0 | 11.3 | 0.00 | 0.00 | 0.00 | 72 | 1013.0 |
| 20260506214137 | 26 | 306 | 4.8 | 4.8 | 0.00 | 0.00 | 0.00 | 72 | 1013.1 |
| 20260506214009 | 26 | 305 | 8.0 | 12.9 | 0.00 | 0.00 | 0.00 | 72 | 1013.1 |
| 20260506213637 | 26 | 301 | 8.0 | 12.9 | 0.00 | 0.00 | 0.00 | 73 | 1013.1 |
| 20260506213137 | 26 | 290 | 8.0 | 9.7 | 0.00 | 0.00 | 0.00 | 73 | 1013.2 |
| 20260506212638 | 26 | 4 | 4.8 | 9.7 | 0.00 | 0.00 | 0.00 | 72 | 1013.2 |
| 20260506212137 | 26 | 305 | 8.0 | 9.7 | 0.00 | 0.00 | 0.00 | 72 | 1013.3 |
| 20260506211637 | 26 | 308 | 8.0 | 11.3 | 0.00 | 0.00 | 0.00 | 71 | 1013.2 |
| 20260506211137 | 26 | 317 | 8.0 | 11.3 | 0.00 | 0.00 | 0.00 | 74 | 1013.3 |
| 20260506210638 | 26 | 294 | 4.8 | 8.0 | 0.00 | 0.00 | 0.00 | 74 | 1013.3 |
| 20260506210137 | 27 | 315 | 9.7 | 11.3 | 0.00 | 0.00 | 0.00 | 72 | 1013.4 |
| 20260506205637 | 27 | 301 | 4.8 | 9.7 | 0.00 | 0.00 | 0.00 | 72 | 1013.4 |
| 20260506205137 | 27 | 279 | 8.0 | 9.7 | 0.00 | 0.00 | 0.00 | 72 | 1013.2 |
| 20260506204637 | 27 | 272 | 9.7 | 11.3 | 0.00 | 0.00 | 0.00 | 71 | 1013.2 |
| 20260506204137 | 27 | 314 | 8.0 | 11.3 | 0.00 | 0.00 | 0.00 | 70 | 1013.3 |
| 20260506203637 | 27 | 306 | 8.0 | 9.7 | 0.00 | 0.00 | 0.00 | 71 | 1013.3 |
| 20260506203503 | 27 | 320 | 4.8 | 12.9 | 0.00 | 0.00 | 0.00 | 73 | 1013.3 |
| 20260506203137 | 27 | 325 | 9.7 | 12.9 | 0.00 | 0.00 | 0.00 | 72 | 1013.4 |
| 20260506203010 | 27 | 301 | 9.7 | 14.5 | 0.00 | 0.00 | 0.00 | 72 | 1013.4 |
| 20260506202637 | 27 | 332 | 4.8 | 8.0 | 0.00 | 0.00 | 0.00 | 71 | 1013.4 |
| 20260506202503 | 27 | 11 | 9.7 | 12.9 | 0.00 | 0.00 | 0.00 | 70 | 1013.4 |
| 20260506202137 | 27 | 332 | 8.0 | 11.3 | 0.00 | 0.00 | 0.00 | 72 | 1013.3 |
| 20260506202010 | 27 | 314 | 8.0 | 14.5 | 0.00 | 0.00 | 0.00 | 71 | 1013.3 |
| 20260506201637 | 27 | 289 | 11.3 | 12.9 | 0.00 | 0.00 | 0.00 | 71 | 1013.3 |
| 20260506201137 | 27 | 336 | 9.7 | 12.9 | 0.00 | 0.00 | 0.00 | 72 | 1013.2 |
| 20260506201010 | 27 | 337 | 8.0 | 14.5 | 0.00 | 0.00 | 0.00 | 72 | 1013.2 |
| 20260506200637 | 27 | 359 | 8.0 | 14.5 | 0.00 | 0.00 | 0.00 | 72 | 1013.3 |
| 20260506200137 | 26 | 0 | 4.8 | 14.5 | 0.00 | 0.00 | 0.00 | 73 | 1013.4 |
| 20260506200004 | 26 | 324 | 6.4 | 11.3 | 0.00 | 0.00 | 0.00 | 73 | 1013.4 |
| 20260506195637 | 26 | 299 | 8.0 | 8.0 | 0.00 | 0.00 | 0.00 | 74 | 1013.4 |
| 20260506195137 | 26 | 316 | 4.8 | 11.3 | 0.00 | 0.00 | 0.00 | 72 | 1013.4 |
| 20260506194637 | 26 | 321 | 4.8 | 4.8 | 0.00 | 0.00 | 0.00 | 73 | 1013.4 |
| 20260506194137 | 26 | 338 | 3.2 | 4.8 | 0.00 | 0.00 | 0.00 | 73 | 1013.4 |
| 20260506193637 | 26 | 331 | 3.2 | 3.2 | 0.00 | 0.00 | 0.00 | 73 | 1013.5 |
| 20260506193137 | 26 | 274 | 4.8 | 8.0 | 0.00 | 0.00 | 0.00 | 75 | 1013.4 |
| 20260506192637 | 25 | 281 | 8.0 | 11.3 | 0.00 | 0.00 | 0.00 | 75 | 1013.4 |
| 20260506192137 | 25 | 314 | 4.8 | 4.8 | 0.00 | 0.00 | 0.00 | 75 | 1013.3 |
| 20260506191637 | 25 | 300 | 8.0 | 11.3 | 0.00 | 0.00 | 0.00 | 76 | 1013.3 |
| 20260506191503 | 25 | 306 | 8.0 | 12.9 | 0.00 | 0.00 | 0.00 | 76 | 1013.4 |
| 20260506191137 | 25 | 282 | 9.7 | 11.3 | 0.00 | 0.00 | 0.00 | 76 | 1013.3 |
| 20260506191009 | 25 | 287 | 3.2 | 11.3 | 0.00 | 0.00 | 0.00 | 76 | 1013.3 |
| 20260506190637 | 25 | 324 | 4.8 | 4.8 | 0.00 | 0.00 | 0.00 | 75 | 1013.3 |
| 20260506190137 | 25 | 331 | 3.2 | 8.0 | 0.00 | 0.00 | 0.00 | 75 | 1013.3 |
| 20260506190005 | 25 | 337 | 6.4 | 9.7 | 0.00 | 0.00 | 0.00 | 75 | 1013.3 |
| 20260506185637 | 25 | 318 | 4.8 | 9.7 | 0.00 | 0.00 | 0.00 | 77 | 1013.3 |
| 20260506185503 | 25 | 317 | 4.8 | 8.0 | 0.00 | 0.00 | 0.00 | 77 | 1013.2 |
| 20260506185137 | 24 | 333 | 4.8 | 4.8 | 0.00 | 0.00 | 0.00 | 77 | 1013.2 |
| 20260506184637 | 24 | 320 | 4.8 | 4.8 | 0.00 | 0.00 | 0.00 | 78 | 1013.2 |
| 20260506184137 | 24 | 289 | 4.8 | 4.8 | 0.00 | 0.00 | 0.00 | 77 | 1013.2 |
| 20260506183637 | 24 | 294 | 3.2 | 4.8 | 0.00 | 0.00 | 0.00 | 78 | 1013.2 |
| 20260506183139 | 23 | 28 | 1.6 | 3.2 | 0.00 | 0.00 | 0.00 | 77 | 1013.2 |
| 20260506183010 | 23 | 28 | 1.6 | 4.8 | 0.00 | 0.00 | 0.00 | 77 | 1013.1 |
| 20260506182639 | 23 | 9 | 4.8 | 4.8 | 0.00 | 0.00 | 0.00 | 78 | 1013.2 |
| 20260506182139 | 23 | 30 | 1.6 | 3.2 | 0.00 | 0.00 | 0.00 | 79 | 1013.1 |
| 20260506182010 | 23 | 22 | 1.6 | 4.8 | 0.00 | 0.00 | 0.00 | 80 | 1013.1 |
| 20260506181639 | 23 | 67 | 1.6 | 3.2 | 0.00 | 0.00 | 0.00 | 81 | 1013.1 |
| 20260506181504 | 23 | 87 | 3.2 | 8.0 | 0.00 | 0.00 | 0.00 | 81 | 1013.1 |
| 20260506181139 | 22 | 357 | 3.2 | 8.0 | 0.00 | 0.00 | 0.00 | 82 | 1013.0 |
| 20260506180639 | 22 | 354 | 3.2 | 1.6 | 0.00 | 0.00 | 0.00 | 83 | 1013.0 |
| 20260506180138 | 21 | 14 | 4.8 | 4.8 | 0.00 | 0.00 | 0.00 | 84 | 1013.0 |
| 20260506175638 | 21 | 348 | 3.2 | 4.8 | 0.00 | 0.00 | 0.00 | 86 | 1013.0 |
| 20260506175139 | 21 | 344 | 4.8 | 4.8 | 0.00 | 0.00 | 0.00 | 88 | 1013.0 |
| 20260506175010 | 20 | 343 | 3.2 | 4.8 | 0.00 | 0.00 | 0.00 | 88 | 1013.0 |
| 20260506174638 | 20 | 302 | 3.2 | 4.8 | 0.00 | 0.00 | 0.00 | 88 | 1013.0 |
| 20260506174138 | 20 | 294 | 3.2 | 4.8 | 0.00 | 0.00 | 0.00 | 89 | 1012.9 |
| 20260506174009 | 20 | 315 | 3.2 | 4.8 | 0.00 | 0.00 | 0.00 | 88 | 1012.8 |
| 20260506173638 | 19 | 310 | 4.8 | 4.8 | 0.00 | 0.00 | 0.00 | 87 | 1012.8 |
| 20260506173138 | 19 | 287 | 1.6 | 4.8 | 0.00 | 0.00 | 0.00 | 87 | 1012.7 |
| 20260506172638 | 18 | 287 | 3.2 | 4.8 | 0.00 | 0.00 | 0.00 | 89 | 1012.6 |
| 20260506172138 | 18 | 69 | 0.0 | 0.0 | 0.00 | 0.00 | 0.00 | 89 | 1012.5 |
| 20260506171638 | 17 | 69 | 0.0 | 0.0 | 0.00 | 0.00 | 0.00 | 90 | 1012.4 |
| 20260506171137 | 17 | 69 | 0.0 | 1.6 | 0.00 | 0.00 | 0.00 | 90 | 1012.3 |
| 20260506171009 | 17 | 69 | 1.6 | 4.8 | 0.00 | 0.00 | 0.00 | 90 | 1012.3 |
| 20260506170637 | 17 | 70 | 3.2 | 4.8 | 0.00 | 0.00 | 0.00 | 90 | 1012.2 |